Location: Newark
(44.2003°N, 3.2583°E)
Time: 06:07:28
(UTC+00:00)

Explorer 7 - Pass Details

Date: 29 October 2019
Orbit: 485 x 680 km, 50.3° (Epoch: 18 November)

Event Time Altitude Azimuth Distance (km) Brightness Sun altitude
Rises 09:02:18 0° 260° (W) 2,607 10.0 23.2°
Reaches altitude 10° 09:04:34 10° 266° (W) 1,702 9.1 23.5°
Maximum altitude 09:08:17 47° 341° (NNW) 653 7.1 23.9°
Drops below altitude 10° 09:11:56 10° 57° (ENE) 1,669 9.4 24.3°
Sets 09:14:09 0° 63° (ENE) 2,551 10.4 24.5°
